Location: Altleiningen
(49.5078°N, 8.0741°E)
Time: 00:09:36
(UTC+00:00)

SL-08 RB Rocket - Pass Details

Date: 03 March 2021
Orbit: 647 x 683 km, 97.8° (Epoch: 12 April)

Event Time Altitude Azimuth Distance (km) Brightness Sun altitude
Rises 18:50:47 0° 175° (S) 2,966 6.9 -16.5°
Reaches altitude 10° 18:53:00 10° 179° (S) 2,064 6.1 -16.8°
Maximum altitude 18:57:27 60° 259° (W) 763 4.3 -17.5°
Drops below altitude 10° 19:02:00 10° 340° (NNW) 2,103 6.7 -18.3°
Sets 19:04:17 0° 344° (NNW) 3,027 7.5 -18.6°
